2023/07/22 00:00:00, 0.1,20.4
2023/07/22 00:10:00, 0.2,20.4
2023/07/22 00:20:00, 0.2,20.1
2023/07/22 00:30:00, 0.2,20.2
2023/07/22 00:40:00, 0.2,20.2
2023/07/22 00:50:00, 0.1,19.8
2023/07/22 01:00:00, 0.1,19.9
2023/07/22 01:10:00, 0.1,20.1
2023/07/22 01:20:00, 0.1,19.9
2023/07/22 01:30:00, 0.1,19.8
2023/07/22 01:40:00, 0.1,19.9
2023/07/22 01:50:00, 0.1,20.0
2023/07/22 02:00:00, 0.1,20.0
2023/07/22 02:10:00, 0.1,19.9
2023/07/22 02:20:00, 0.1,20.0
2023/07/22 02:30:00, 0.1,19.9
2023/07/22 02:40:00, 0.1,19.9
2023/07/22 02:50:00, 0.1,19.5
2023/07/22 03:00:00, 0.1,19.4
2023/07/22 03:10:00, 0.1,19.3
2023/07/22 03:20:00, 0.1,19.2
2023/07/22 03:30:00, 0.1,19.3
2023/07/22 03:40:00, 0.1,19.1
2023/07/22 03:50:00, 0.1,18.9
2023/07/22 04:00:00, 0.1,18.9
2023/07/22 04:10:00, 0.1,18.8
2023/07/22 04:20:00, 0.1,18.8
2023/07/22 04:30:00, 0.1,18.9
2023/07/22 04:40:00, 0.1,18.5
2023/07/22 04:50:00, 0.1,18.5
2023/07/22 05:00:00, 0.1,18.6
2023/07/22 05:10:00, 0.1,18.7
2023/07/22 05:20:00, 0.0,18.3
2023/07/22 05:30:00, 0.0,18.7
2023/07/22 05:40:00, 0.0,18.6
2023/07/22 05:50:00, 0.0,18.6
2023/07/22 06:00:00, 0.1,18.9
2023/07/22 06:10:00, 0.1,19.0
2023/07/22 06:20:00, 0.1,19.1
2023/07/22 06:30:00, 0.1,19.5
2023/07/22 06:40:00, 0.1,20.3
2023/07/22 06:50:00, 0.1,20.7
2023/07/22 07:00:00, 0.1,21.3
2023/07/22 07:10:00, 0.1,21.6
2023/07/22 07:20:00, 0.2,22.3
2023/07/22 07:30:00, 0.2,23.1
2023/07/22 07:40:00, 0.2,23.6
2023/07/22 07:50:00, 0.2,24.1
2023/07/22 08:00:00, 0.1,24.7
2023/07/22 08:10:00, 0.1,25.4
2023/07/22 08:20:00, 0.1,26.4
2023/07/22 08:30:00, 0.1,26.8
2023/07/22 08:40:00, 0.1,27.0
2023/07/22 08:50:00, 0.1,27.2
2023/07/22 09:00:00, 0.1,27.7
2023/07/22 09:10:00, 0.1,27.9
2023/07/22 09:20:00, 0.1,28.3
2023/07/22 09:30:00, 0.1,28.8
2023/07/22 09:40:00, 0.1,29.1
2023/07/22 09:50:00, 0.1,29.4
2023/07/22 10:00:00, 0.1,30.1
2023/07/22 10:10:00, 0.1,29.9
2023/07/22 10:20:00, 0.1,30.0
2023/07/22 10:30:00, 0.2,30.6
2023/07/22 10:40:00, 0.2,30.7
2023/07/22 10:50:00, 0.3,30.8
2023/07/22 11:00:00, 0.3,31.8
2023/07/22 11:10:00, 0.3,31.5
2023/07/22 11:20:00, 0.3,31.6
2023/07/22 11:30:00, 0.5,32.3
2023/07/22 11:40:00, 0.5,31.8
2023/07/22 11:50:00, 0.5,32.5
2023/07/22 12:00:00, 0.5,32.9
2023/07/22 12:10:00, 0.5,33.2
2023/07/22 12:20:00, 0.5,33.7
2023/07/22 12:30:00, 0.5,33.3
2023/07/22 12:40:00, 0.5,33.4
2023/07/22 12:50:00, 0.5,34.4
2023/07/22 13:00:00, 0.5,34.6
2023/07/22 13:10:00, 0.5,34.0
2023/07/22 13:20:00, 0.5,34.7
2023/07/22 13:30:00, 0.5,36.4
2023/07/22 13:40:00, 0.4,34.5
2023/07/22 13:50:00, 0.4,34.6
2023/07/22 14:00:00, 0.2,34.1
2023/07/22 14:10:00, 0.3,34.3
2023/07/22 14:20:00, 0.4,34.3
2023/07/22 14:30:00, 0.3,34.7
2023/07/22 14:40:00, 0.3,32.1
2023/07/22 14:50:00, 0.2,31.4
2023/07/22 15:00:00, 0.3,30.4
2023/07/22 15:10:00, 0.2,30.2
2023/07/22 15:20:00, 0.4,32.5
2023/07/22 15:30:00, 0.3,30.9
2023/07/22 15:40:00, 0.3,32.1
2023/07/22 15:50:00, 0.3,30.7
2023/07/22 16:00:00, 0.2,26.5
2023/07/22 16:10:00, 0.0,25.8
2023/07/22 16:20:00, 0.1,25.1
2023/07/22 16:30:00, 0.1,24.9
2023/07/22 16:40:00, 0.1,25.4
2023/07/22 16:50:00, 0.1,28.4
2023/07/22 17:00:00, 0.1,26.1
2023/07/22 17:10:00, 0.1,25.8
2023/07/22 17:20:00, 0.1,26.9
2023/07/22 17:30:00, 0.1,26.3
2023/07/22 17:40:00, 0.1,25.5
2023/07/22 17:50:00, 0.1,25.3
2023/07/22 18:00:00, 0.1,25.1
2023/07/22 18:10:00, 0.1,24.9
2023/07/22 18:20:00, 0.1,24.7
2023/07/22 18:30:00, 0.1,24.4
2023/07/22 18:40:00, 0.1,24.3
2023/07/22 18:50:00, 0.1,24.4
2023/07/22 19:00:00, 0.1,24.3
2023/07/22 19:10:00, 0.3,24.1
2023/07/22 19:20:00, 0.3,24.0
2023/07/22 19:30:00, 0.3,24.0
2023/07/22 19:40:00, 0.3,23.7
2023/07/22 19:50:00, 0.2,23.7
2023/07/22 20:00:00, 0.3,23.7
2023/07/22 20:10:00, 0.3,23.6
2023/07/22 20:20:00, 0.3,23.4
2023/07/22 20:30:00, 0.3,23.4
2023/07/22 20:40:00, 0.3,23.4
2023/07/22 20:50:00, 0.3,23.3
2023/07/22 21:00:00, 0.3,23.6
2023/07/22 21:10:00, 0.3,23.5
2023/07/22 21:20:00, 0.3,23.3
2023/07/22 21:30:00, 0.3,23.3
2023/07/22 21:40:00, 0.3,23.3
2023/07/22 21:50:00, 0.3,23.3
2023/07/22 22:00:00, 0.3,23.2
2023/07/22 22:10:00, 0.3,23.2
2023/07/22 22:20:00, 0.3,23.3
2023/07/22 22:30:00, 0.3,23.0
2023/07/22 22:40:00, 0.3,23.0
2023/07/22 22:50:00, 0.2,22.9
2023/07/22 23:00:00, 0.2,22.8
2023/07/22 23:10:00, 0.3,22.4
2023/07/22 23:20:00, 0.3,22.4
2023/07/22 23:30:00, 0.2,22.3
2023/07/22 23:40:00, 0.2,22.3
2023/07/22 23:50:00, 0.2,22.1
